COSMOS 2361 1 25590U 98076A 25186.32133337 .00000043 00000-0 29874-4 0 9999 2 25590 82.9345 102.7179 0031434 354.4692 126.9248 13.73197957329399 COSMOS 2378 1 26818U 01023A 25186.47682557 .00000039 00000-0 25569-4 0 9990 2 26818 82.9277 118.5448 0031702 294.6197 134.4778 13.74123041207294 COSMOS 2389 1 27436U 02026A 25185.95920853 .00000039 00000-0 24270-4 0 9995 2 27436 82.9502 65.9972 0047019 147.1788 224.3072 13.75136896159391 COSMOS 2398 1 27818U 03023A 25185.95656659 .00000044 00000-0 31155-4 0 9993 2 27818 82.9477 31.1915 0030884 197.1483 274.4435 13.72367952106114 COSMOS 2407 1 28380U 04028A 25186.51242124 .00000051 00000-0 35722-4 0 9997 2 28380 82.9618 331.5565 0040149 140.5656 289.8835 13.76293315 52381 COSMOS 2414 1 28521U 05002A 25186.41243931 .00000061 00000-0 38444-4 0 9998 2 28521 82.9510 305.9157 0038977 237.0963 122.6448 13.87878777 36042 COSMOS 2429 1 32052U 07038A 25186.20969209 .00000047 00000-0 33051-4 0 9996 2 32052 82.9809 101.6348 0039487 123.1799 237.3154 13.75130212894052 COSMOS 2454 1 35635U 09039A 25185.92981425 .00000049 00000-0 27228-4 0 9992 2 35635 82.9571 290.5566 0019548 168.6697 260.0715 13.89904558809357 COSMOS 2463 1 36519U 10017A 25185.96791241 .00000047 00000-0 35203-4 0 9991 2 36519 82.9611 144.8427 0036638 15.8811 47.0171 13.71632562760338